Hebron, NE

7:41 PM CST on December 07, 2016 (GMT -0600)
Hebron Municipal

Weather History for KHJH - March, 2013

Change the Weather History Date:

Monday, March 25, 2013

  Actual Average Record
Temperature  
Mean Temperature 28 °F -  
Max Temperature 32 °F 53 °F 81 °F (1956)
Min Temperature 23 °F 30 °F 8 °F (1965)
Degree Days  
Heating Degree Days 38    
Moisture  
Dew Point 17 °F    
Average Humidity 64    
Maximum Humidity 80    
Minimum Humidity 49    
Precipitation  
Precipitation 0.00 in - - ()
Sea Level Pressure  
Sea Level Pressure 30.26 in    
Wind  
Wind Speed 14 mph (NNW)    
Max Wind Speed 24 mph    
Max Gust Speed 31 mph    
Visibility 10 miles    
Events      
Averages and records for this station are not official NWS values.
T = Trace of Precipitation, MM = Missing Value Source: NWS Daily Summary

Daily Weather History Graph

Daily Weather History Graph

Search for Another Location

Airport or City:

Trip Planner

Search our weather history database for the weather conditions in past years. The results will help you decide how hot, cold, wet, or windy it might be!

Date:

Astronomy

Mar. 25, 2013 Rise Set
Actual Time 7:25 AM CDT 7:47 PM CDT
Civil Twilight 6:58 AM CDT 8:15 PM CDT
Nautical Twilight 6:26 AM CDT 8:47 PM CDT
Astronomical Twilight 5:53 AM CDT 9:19 PM CDT
Moon 6:20 PM CDT (3/25) 6:09 AM CDT (3/25)
Length of Visible Light 13h 17m
Length of Day
12h 22m
Waxing Gibbous, 96% of the Moon is Illuminated
Mar 25
Waxing Gibbous
Mar 27
Full
Apr 2
Last Quarter
Apr 10
New
Apr 18
First Quarter

Hourly Weather History & Observations

Time (CDT) Temp. Windchill Dew Point Humidity Pressure Visibility Wind Dir Wind Speed Gust Speed Precip Events Conditions
12:15 AM 25.2 °F 13.9 °F 17.2 °F 72% 30.15 in 10.0 mi NW 12.7 mph - N/A   Clear
12:35 AM 25.2 °F 13.3 °F 17.6 °F 73% 30.15 in 10.0 mi NNW 13.8 mph - N/A   Clear
12:55 AM 25.7 °F 14.0 °F 18.0 °F 73% 30.15 in 10.0 mi NNW 13.8 mph 19.6 mph N/A   Clear
1:15 AM 25.7 °F 13.5 °F 18.3 °F 74% 30.15 in 10.0 mi NNW 15.0 mph 20.7 mph N/A   Scattered Clouds
1:35 AM 25.7 °F 13.5 °F 18.5 °F 74% 30.15 in 10.0 mi NNW 15.0 mph 20.7 mph N/A   Clear
1:55 AM 25.7 °F 13.5 °F 18.5 °F 74% 30.15 in 10.0 mi NW 15.0 mph - N/A   Scattered Clouds
2:15 AM 25.7 °F 13.1 °F 18.9 °F 75% 30.15 in 10.0 mi NW 16.1 mph 21.9 mph N/A   Scattered Clouds
2:35 AM 25.3 °F 13.1 °F 18.9 °F 76% 30.16 in 10.0 mi NW 15.0 mph 19.6 mph N/A   Scattered Clouds
2:55 AM 25.5 °F 13.3 °F 19.0 °F 76% 30.16 in 10.0 mi NW 15.0 mph 19.6 mph N/A   Mostly Cloudy
3:15 AM 25.5 °F 12.9 °F 19.0 °F 76% 30.17 in 10.0 mi NW 16.1 mph 21.9 mph N/A   Mostly Cloudy
3:55 AM 26.6 °F 14.3 °F 19.8 °F 75% 30.17 in 10.0 mi NNW 16.1 mph 23.0 mph N/A   Overcast
4:15 AM 26.6 °F 14.3 °F 19.8 °F 75% 30.17 in 10.0 mi NNW 16.1 mph 23.0 mph N/A   Overcast
4:35 AM 26.6 °F 15.2 °F 19.8 °F 75% 30.17 in 10.0 mi NNW 13.8 mph 24.2 mph N/A   Overcast
4:55 AM 26.6 °F 14.3 °F 19.6 °F 75% 30.18 in 10.0 mi NNW 16.1 mph 19.6 mph N/A   Overcast
5:15 AM 26.2 °F 14.7 °F 19.4 °F 75% 30.19 in 10.0 mi NNW 13.8 mph 21.9 mph N/A   Overcast
5:35 AM 25.0 °F 12.6 °F 18.7 °F 77% 30.20 in 10.0 mi NNW 15.0 mph - N/A   Mostly Cloudy
5:55 AM 24.4 °F 12.4 °F 18.5 °F 78% 30.20 in 10.0 mi NW 13.8 mph - N/A   Clear
6:15 AM 23.9 °F 12.9 °F 18.3 °F 79% 30.21 in 10.0 mi NW 11.5 mph - N/A   Clear
6:35 AM 23.7 °F 14.0 °F 18.3 °F 80% 30.21 in 10.0 mi NW 9.2 mph - N/A   Clear
6:55 AM 23.7 °F 14.0 °F 18.1 °F 79% 30.22 in 10.0 mi NW 9.2 mph - N/A   Clear
7:15 AM 24.4 °F 14.2 °F 18.9 °F 79% 30.22 in 10.0 mi NW 10.4 mph 16.1 mph N/A   Clear
7:35 AM 25.2 °F 14.4 °F 18.7 °F 76% 30.22 in 10.0 mi NW 11.5 mph - N/A   Clear
7:55 AM 25.7 °F 14.6 °F 18.5 °F 74% 30.23 in 10.0 mi NW 12.7 mph 17.3 mph N/A   Scattered Clouds
8:15 AM 26.2 °F 14.2 °F 18.5 °F 73% 30.23 in 10.0 mi NW 15.0 mph 21.9 mph N/A   Scattered Clouds
8:35 AM 26.6 °F 15.7 °F 18.5 °F 71% 30.24 in 10.0 mi NW 12.7 mph - N/A   Clear
8:55 AM 27.3 °F 16.1 °F 18.5 °F 69% 30.24 in 10.0 mi NNW 13.8 mph 24.2 mph N/A   Clear
9:15 AM 28.2 °F 15.2 °F 18.1 °F 66% 30.25 in 10.0 mi NNW 19.6 mph 27.6 mph N/A   Clear
9:35 AM 29.3 °F 16.2 °F 18.3 °F 64% 30.25 in 10.0 mi NNW 20.7 mph 28.8 mph N/A   Scattered Clouds
9:55 AM 30.0 °F 17.2 °F 17.4 °F 59% 30.25 in 10.0 mi NNW 20.7 mph 29.9 mph N/A   Scattered Clouds
10:15 AM 29.1 °F 16.0 °F 18.0 °F 63% 30.26 in 10.0 mi NNW 20.7 mph 27.6 mph N/A   Overcast
10:35 AM 30.4 °F 18.0 °F 17.4 °F 59% 30.27 in 10.0 mi NNW 19.6 mph 28.8 mph N/A   Overcast
10:55 AM 30.4 °F 16.7 °F 16.7 °F 57% 30.27 in 10.0 mi NNW 24.2 mph 31.1 mph N/A   Overcast
11:15 AM 30.6 °F 18.6 °F 16.9 °F 57% 30.28 in 10.0 mi NNW 18.4 mph 28.8 mph N/A   Overcast
11:35 AM 30.7 °F 18.1 °F 16.9 °F 56% 30.28 in 10.0 mi NNW 20.7 mph 29.9 mph N/A   Overcast
11:55 AM 31.8 °F 19.9 °F 15.8 °F 52% 30.28 in 10.0 mi NNW 19.6 mph 28.8 mph N/A   Overcast
12:15 PM 31.8 °F 20.6 °F 15.6 °F 51% 30.29 in 10.0 mi NNW 17.3 mph 29.9 mph N/A   Overcast
12:35 PM 32.0 °F 19.8 °F 15.8 °F 51% 30.29 in 10.0 mi North 20.7 mph 26.5 mph N/A   Overcast
12:55 PM 32.0 °F 20.8 °F 16.7 °F 53% 30.29 in 10.0 mi NNW 17.3 mph 26.5 mph N/A   Overcast
1:15 PM 32.2 °F 20.7 °F 18.0 °F 56% 30.28 in 10.0 mi NNW 18.4 mph 27.6 mph N/A   Overcast
1:35 PM 32.2 °F 20.7 °F 18.0 °F 56% 30.28 in 10.0 mi North 18.4 mph 25.3 mph N/A   Mostly Cloudy
1:55 PM 32.5 °F 20.8 °F 18.1 °F 55% 30.28 in 10.0 mi North 19.6 mph 26.5 mph N/A   Mostly Cloudy
2:15 PM 32.2 °F 21.4 °F 18.5 °F 57% 30.28 in 10.0 mi NNW 16.1 mph - N/A   Overcast
2:35 PM 32.5 °F 20.8 °F 17.1 °F 53% 30.28 in 10.0 mi North 19.6 mph 25.3 mph N/A   Overcast
2:55 PM 32.5 °F 21.5 °F 17.1 °F 53% 30.29 in 10.0 mi NNW 17.3 mph 23.0 mph N/A   Mostly Cloudy
3:15 PM 32.0 °F 21.2 °F 17.8 °F 56% 30.29 in 10.0 mi NNW 16.1 mph 26.5 mph N/A   Overcast
3:35 PM 32.0 °F 21.2 °F 16.5 °F 53% 30.29 in 10.0 mi NNW 16.1 mph 24.2 mph N/A   Overcast
3:55 PM 32.5 °F 21.9 °F 17.4 °F 54% 30.29 in 10.0 mi North 16.1 mph 24.2 mph N/A   Overcast
4:15 PM 32.4 °F 22.1 °F 17.8 °F 55% 30.29 in 10.0 mi North 15.0 mph 24.2 mph N/A   Overcast
4:35 PM 32.2 °F 20.7 °F 16.5 °F 53% 30.29 in 10.0 mi NNW 18.4 mph 24.2 mph N/A   Mostly Cloudy
4:55 PM 32.2 °F 21.8 °F 15.4 °F 50% 30.29 in 10.0 mi NNW 15.0 mph - N/A   Mostly Cloudy
5:15 PM 32.4 °F 22.5 °F 15.4 °F 50% 30.29 in 10.0 mi NNW 13.8 mph 20.7 mph N/A   Scattered Clouds
5:35 PM 32.5 °F 22.7 °F 15.8 °F 50% 30.29 in 10.0 mi NW 13.8 mph - N/A   Mostly Cloudy
5:55 PM 32.0 °F 21.6 °F 14.9 °F 49% 30.30 in 10.0 mi NNW 15.0 mph 18.4 mph N/A   Overcast
6:15 PM 32.0 °F 20.5 °F 15.1 °F 50% 30.30 in 10.0 mi NNW 18.4 mph - N/A   Overcast
6:35 PM 31.6 °F 20.7 °F 14.9 °F 50% 30.31 in 10.0 mi North 16.1 mph - N/A   Overcast
6:55 PM 31.3 °F 22.1 °F 15.6 °F 52% 30.32 in 10.0 mi North 11.5 mph 18.4 mph N/A   Overcast
7:15 PM 30.9 °F 20.7 °F 16.0 °F 54% 30.33 in 10.0 mi North 13.8 mph 19.6 mph N/A   Overcast
7:35 PM 30.2 °F 19.8 °F 16.0 °F 56% 30.33 in 10.0 mi North 13.8 mph 18.4 mph N/A   Overcast
7:55 PM 30.0 °F 21.1 °F 16.7 °F 58% 30.34 in 10.0 mi North 10.4 mph 16.1 mph N/A   Overcast
8:15 PM 29.7 °F 20.1 °F 16.0 °F 57% 30.34 in 10.0 mi NNW 11.5 mph - N/A   Overcast
8:35 PM 29.3 °F 20.8 °F 14.5 °F 54% 30.34 in 10.0 mi NNW 9.2 mph 19.6 mph N/A   Overcast
8:55 PM 28.8 °F 20.9 °F 15.4 °F 58% 30.34 in 10.0 mi NNW 8.1 mph - N/A   Mostly Cloudy
9:15 PM 28.2 °F 21.0 °F 15.8 °F 60% 30.35 in 10.0 mi NNW 6.9 mph - N/A   Scattered Clouds
9:35 PM 27.9 °F 20.6 °F 16.7 °F 63% 30.35 in 10.0 mi NNW 6.9 mph - N/A   Mostly Cloudy
9:55 PM 28.0 °F 20.8 °F 17.6 °F 65% 30.35 in 10.0 mi NNW 6.9 mph - N/A   Overcast
10:15 PM 28.0 °F 20.8 °F 17.2 °F 64% 30.36 in 10.0 mi NNW 6.9 mph - N/A   Overcast
10:35 PM 27.9 °F 24.0 °F 17.6 °F 65% 30.36 in 10.0 mi NNW 3.5 mph - N/A   Overcast
10:55 PM 27.0 °F 23.0 °F 17.6 °F 68% 30.36 in 10.0 mi NNW 3.5 mph - N/A   Scattered Clouds
11:15 PM 27.1 °F 19.7 °F 17.6 °F 67% 30.36 in 10.0 mi NNW 6.9 mph - N/A   Mostly Cloudy
11:35 PM 27.3 °F 20.9 °F 17.1 °F 65% 30.36 in 10.0 mi NNW 5.8 mph - N/A   Overcast
11:55 PM 26.6 °F 19.1 °F 16.7 °F 66% 30.36 in 10.0 mi NNW 6.9 mph - N/A   Scattered Clouds